Location: Friaudour
(46.0460°N, 1.2873°E)
Time: 21:11:26
(UTC+00:00)

Cosmos 1515 - Pass Details

Date: 14 July 2020
Orbit: 507 x 515 km, 82.5° (Epoch: 14 August)

Event Time Altitude Azimuth Distance (km) Brightness Sun altitude
Rises 01:09:13 0° 353° (N) 2,641 8.5 -20.6°
Reaches altitude 10° 01:11:22 10° 356° (N) 1,750 7.4 -20.5°
Maximum altitude 01:15:12 69° 80° (E) 554 3.8 -20.3°
Enters shadow 01:16:00 51° 142° (SE) 653 3.9 -20.2°
